Orbital Elements at Epoch 2459200.5 (2020-Dec-17.0) TDB
Reference: JPL 20 (heliocentric ecliptic J2000)
Element | Value | Uncertainty (1-sigma) | Units |
e | .1993299577154354 | 4.418e-08 | |
a | 2.433598936098131 | 7.7442e-09 | au |
q | 1.948509763069362 | 1.0714e-07 | au |
i | 1.61947288843692 | 5.2725e-06 | deg |
node | 22.75236722234985 | 0.00012377 | deg |
peri | 308.4060413808229 | 0.00012434 | deg |
M | 48.16422470918723 | 1.0614e-05 | deg |
tp | 2459014.978601138796 (2020-Jun-14.47860114) | 4.0828e-05 | TDB |
period | 1386.666223598403 3.80 | 6.619e-06 1.812e-08 | d yr |
n | .2596154675678182 | 1.2392e-09 | deg/d |
Q | 2.918688109126901 | 9.2879e-09 | au |
|
| | Orbit Determination Parameters
Additional Information
|